Tracking 31027 objects as of 19-Jul-2025
HD Live streaming from Space Station
objects crossing your sky now

STARLINK-11187

Track STARLINK-11187 now!
10-day predictions
STARLINK-11187 is classified as:


NORAD ID: 60184
Int'l Code: 2024-124B
Perigee: 366.1 km
Apogee: 367.7 km
Inclination: 53.2 °
Period: 91.7 minutes
Semi major axis: 6737 km
RCS: Unknown
Launch date: July 3, 2024
Source: United States (US)
Launch site: AIR FORCE EASTERN TEST RANGE (AFETR)
Your satellite tracking list
ST5-A
Track 1 satellite(s)




NASA's NSSDC Master Catalog

Two Line Element Set (TLE):
1 60184U 24124B   25199.81746248 -.00001042  00000-0 -37398-5 0  9992
2 60184  53.1595 234.0268 0001225  89.2062 270.9096 15.69702850 60980
Source of the keplerian elements: AFSPC